DECAYED

STARLINK-3684, 52124 (Decayed)

Orbit data source: Space-Track

STARLINK-3684, 52124 was a payload satellite owned by SpaceX/Seattle (US) in LEO that was launched on Sat, 19 Mar 2022 UTC via an FALCON 9 launch vehicle from the Air Force Eastern Test Range (AFETR). Payload-class satellites include a variety of spacecraft equipped with specific instruments for various scientific and technological missions. These include communications satellites like Starlink; space stations such as the ISS; scientific satellites like the Hubble; Earth observation satellites from companies like Planet Labs, Umbra, and HawkEye 360; GPS; miniature CubeSats for education and research; and military/defense satellites.

Not visible in the next 10 days
Identifier
52124, 2022-029AN
Orbit
Decayed
Country
Flag of USUS
Related business
Manufacturer
SpaceX/Seattle
Mission
Decayed Commercial Communications
Bus & Motor
STARLINK, Unknown motor
Mass
297 kg wet, ~275 kg dry
Launch date (UTC)
2022-03-19 (4 years ago)
Launch vehicle
FALCON 9
Launch site
Air Force Eastern Test Range (AFETR)
Object type
Payload
Rocket body
Debris
Shape & HBR
Box + 1 Pan, 10.1 m
Radar Cross Section
13.562 m², Large (>1 m²)

Expand to show TLE details & history
Last TLE update: 1 year ago

TLE from 1 year ago
0 STARLINK-3684
1 52124U 22029AN  25004.54305442  .14181714  12484-4  34715-3 0  9990
2 52124  53.1941 181.7153 0003112 230.7269 236.3729 16.46072603156325
Epoch: 2025-01-04T13:01Z
TLE epoch observation values (Epoch: 2025-01-04T13:01:59.901Z)
Latitude
50.09805°
Longitude
-1.00969°
Altitude
156.621 km
Speed
7.818 km/s
True Right ascension
19h 55m 31s
True Declination
49° 54' 47"
Sunlit
Object was in daylight at epoch
Visualization orbit readout
Latitude
Unknown
Longitude
Unknown
Altitude
Unknown
Speed
Unknown
Apparent Right ascension
Unknown
Apparent Declination
Unknown
Sunlit
N/A
Visualization observer readout
Local Sidereal Time
21:24:19
Azimuth
Unknown
Elevation
Unknown
Doppler factor
Unknown
Orbital elements
Apogee altitude
151.993 km
Perigee altitude
147.93 km
Semi-major axis
6,528.098 km
Eccentricity
0.00031
Inclination
53.1941°
RAAN
181.7153°
Arg. of periapsis
230.7269°
True anomaly
236.34321°
Mean anomaly
236.3729°
Eccentric anomaly
236.35806°
Mean motion
4.11494 °/min
Orbital period
87.49 mins
BSTAR
0.00034715
Loading maneuver chart data...
Computing Atmospheric mass density...
Loading historical data...
Loading historical data...
Loading historical data...
Loading historical data...
Loading historical data...
Loading historical data...
Loading historical data...

Documentation

Showing up to 5 results
|